This is the latest recevied weather packets stored in our database for station/object KF0TNT. If no packets are shown the sender has not sent any weather packets the latest 10 day(s).
| Time | Temp. | Humidity | Pressure | Rain* | Wind** | Luminosity | Snow |
|---|---|---|---|---|---|---|---|
| 1777416212 | 9.44° C | 52% | 1018.1 hPa | 0 mm | - | 291 W/m² | - |
| 1777415911 | 10° C | 52% | 1018.1 hPa | 0 mm | - | 288 W/m² | - |
| 1777415608 | 10° C | 52% | 1018 hPa | 0 mm | - | 188 W/m² | - |
| 1777415303 | 9.44° C | 53% | 1017.9 hPa | 0 mm | - | 519 W/m² | - |
| 1777414998 | 9.44° C | 54% | 1018.1 hPa | 0 mm | - | 302 W/m² | - |
| 1777414697 | 10° C | 56% | 1018 hPa | 0 mm | - | 254 W/m² | - |
| 1777414389 | 9.44° C | 57% | 1018.1 hPa | 0 mm | - | 241 W/m² | - |
| 1777414088 | 9.44° C | 58% | 1018 hPa | 0 mm | - | 372 W/m² | - |
| 1777413783 | 9.44° C | 59% | 1017.9 hPa | 0 mm | - | 280 W/m² | - |
| 1777413478 | 9.44° C | 58% | 1018 hPa | 0 mm | - | 221 W/m² | - |
| 1777413174 | 9.44° C | 59% | 1017.7 hPa | 0 mm | - | 235 W/m² | - |
| 1777412874 | 9.44° C | 59% | 1018 hPa | 0 mm | - | 303 W/m² | - |
| 1777412570 | 10° C | 59% | 1017.7 hPa | 0 mm | - | 242 W/m² | - |
| 1777412267 | 10° C | 58% | 1018.1 hPa | 0 mm | - | 249 W/m² | - |
| 1777411963 | 10° C | 57% | 1018.2 hPa | 0 mm | - | 275 W/m² | - |
| 1777411662 | 10° C | 59% | 1018.2 hPa | 0 mm | - | 384 W/m² | - |
| 1777411357 | 9.44° C | 59% | 1018.1 hPa | 0 mm | - | 588 W/m² | - |
| 1777411056 | 9.44° C | 59% | 1018.1 hPa | 0 mm | - | 264 W/m² | - |
| 1777410751 | 9.44° C | 59% | 1018.2 hPa | 0 mm | - | 384 W/m² | - |
| 1777410445 | 9.44° C | 59% | 1018.1 hPa | 0 mm | - | 507 W/m² | - |
| 1777410144 | 8.89° C | 64% | 1018.2 hPa | 0 mm | - | 603 W/m² | - |
| 1777409839 | 8.89° C | 67% | 1018.2 hPa | 0 mm | - | 226 W/m² | - |
| 1777409535 | 8.89° C | 62% | 1018.2 hPa | 0 mm | - | 242 W/m² | - |
| 1777409231 | 8.89° C | 59% | 1018.4 hPa | 0 mm | - | 173 W/m² | - |
| 1777408927 | 8.89° C | 56% | 1018.1 hPa | 0 mm | - | 189 W/m² | - |
* Rain latest hour (hover to see other rain measurements)
** Current wind speed in m/s (hover to see current wind gust speed)